This is the latest recevied weather packets stored in our database for station/object N4CRH-13. If no packets are shown the sender has not sent any weather packets the latest 10 day(s).
| Time | Temp. | Humidity | Pressure | Rain* | Wind** | Luminosity | Snow |
|---|---|---|---|---|---|---|---|
| 1777720276 | -1.11° C | 68% | 1300.2 hPa | 0 mm | - | 0 W/m² | - |
| 1777719974 | -1.11° C | 68% | 1300.2 hPa | 0 mm | - | 0 W/m² | - |
| 1777719671 | -1.11° C | 69% | 1300.1 hPa | 0 mm | - | 0 W/m² | - |
| 1777719368 | -1.11° C | 68% | 1300.3 hPa | 0 mm | - | 0 W/m² | - |
| 1777719065 | -1.11° C | 68% | 1300.1 hPa | 0 mm | - | 0 W/m² | - |
| 1777718762 | -1.11° C | 66% | 1300.2 hPa | 0 mm | - | 0 W/m² | - |
| 1777718460 | -1.11° C | 69% | 1300.2 hPa | 0 mm | - | 0 W/m² | - |
| 1777718157 | -1.11° C | 68% | 1300.3 hPa | 0 mm | - | 0 W/m² | - |
| 1777717856 | -1.11° C | 71% | 1300.4 hPa | 0 mm | - | 0 W/m² | - |
| 1777717551 | -1.11° C | 67% | 1300.4 hPa | 0 mm | - | 0 W/m² | - |
| 1777717249 | -1.11° C | 68% | 1300.3 hPa | 0 mm | - | 0 W/m² | - |
| 1777716947 | -1.11° C | 67% | 1300.3 hPa | 0 mm | - | 0 W/m² | - |
| 1777716645 | -1.11° C | 67% | 1300.1 hPa | 0 mm | - | 0 W/m² | - |
| 1777716343 | -1.11° C | 68% | 1300.1 hPa | 0 mm | - | 0 W/m² | - |
| 1777716041 | -1.11° C | 65% | 1299.9 hPa | 0 mm | - | 0 W/m² | - |
| 1777715738 | -1.11° C | 67% | 1300.1 hPa | 0 mm | - | 0 W/m² | - |
| 1777715436 | -1.11° C | 66% | 1300.1 hPa | 0 mm | - | 0 W/m² | - |
| 1777715133 | -1.11° C | 69% | 1299.9 hPa | 0 mm | - | 0 W/m² | - |
| 1777714831 | -1.11° C | 68% | 1299.9 hPa | 0 mm | - | 0 W/m² | - |
| 1777714529 | -1.11° C | 68% | 1300.1 hPa | 0 mm | - | 0 W/m² | - |
| 1777714227 | -1.11° C | 71% | 1300.1 hPa | 0 mm | - | 0 W/m² | - |
| 1777713924 | -1.11° C | 68% | 1300.1 hPa | 0 mm | - | 0 W/m² | - |
| 1777713621 | -1.11° C | 71% | 1300.1 hPa | 0 mm | - | 0 W/m² | - |
| 1777713318 | -1.11° C | 66% | 1299.9 hPa | 0 mm | - | 0 W/m² | - |
| 1777713015 | -0.56° C | 70% | 1300.2 hPa | 0 mm | - | 0 W/m² | - |
* Rain latest hour (hover to see other rain measurements)
** Current wind speed in m/s (hover to see current wind gust speed)